Year,Month,Day,Hour,Minute,Value (Times are PST for temperature in C)
2017,09,06,00,00,17.40
2017,09,06,00,01,17.40
2017,09,06,00,02,17.40
2017,09,06,00,03,17.40
2017,09,06,00,04,17.30
2017,09,06,00,05,17.30
2017,09,06,00,06,17.30
2017,09,06,00,07,17.20
2017,09,06,00,08,17.20
2017,09,06,00,09,17.20
2017,09,06,00,10,17.20
2017,09,06,00,11,17.10
2017,09,06,00,12,17.10
2017,09,06,00,13,17.10
2017,09,06,00,14,17.10
2017,09,06,00,15,17.10
2017,09,06,00,16,17.10
2017,09,06,00,17,17.10
2017,09,06,00,18,17.10
2017,09,06,00,19,17.10
2017,09,06,00,20,17.10
2017,09,06,00,21,17.00
2017,09,06,00,22,17.00
2017,09,06,00,23,17.00
2017,09,06,00,24,17.10
2017,09,06,00,25,17.10
2017,09,06,00,26,17.10
2017,09,06,00,27,17.10
2017,09,06,00,28,17.10
2017,09,06,00,29,17.10
2017,09,06,00,30,17.10
2017,09,06,00,31,17.00
2017,09,06,00,32,17.00
2017,09,06,00,33,17.00
2017,09,06,00,34,16.90
2017,09,06,00,35,16.90
2017,09,06,00,36,16.90
2017,09,06,00,37,16.90
2017,09,06,00,38,16.90
2017,09,06,00,39,16.90
2017,09,06,00,40,16.80
2017,09,06,00,41,16.80
2017,09,06,00,42,16.80
2017,09,06,00,43,16.80
2017,09,06,00,44,16.80
2017,09,06,00,45,16.70
2017,09,06,00,46,16.70
2017,09,06,00,47,16.70
2017,09,06,00,48,16.70
2017,09,06,00,49,16.70
2017,09,06,00,50,16.70
2017,09,06,00,51,16.70
2017,09,06,00,52,16.60
2017,09,06,00,53,16.60
2017,09,06,00,54,16.60
2017,09,06,00,55,16.60
2017,09,06,00,56,16.60
2017,09,06,00,57,16.60
2017,09,06,00,58,16.60
2017,09,06,00,59,16.60
2017,09,06,01,00,16.50
2017,09,06,01,01,16.50
2017,09,06,01,02,16.50
2017,09,06,01,03,16.50
2017,09,06,01,04,16.50
2017,09,06,01,05,16.40
2017,09,06,01,06,16.40
2017,09,06,01,07,16.40
2017,09,06,01,08,16.40
2017,09,06,01,09,16.30
2017,09,06,01,10,16.30
2017,09,06,01,11,16.30
2017,09,06,01,12,16.30
2017,09,06,01,13,16.30
2017,09,06,01,14,16.30
2017,09,06,01,15,16.30
2017,09,06,01,16,16.30
2017,09,06,01,17,16.30
2017,09,06,01,18,16.40
2017,09,06,01,19,16.40
2017,09,06,01,20,16.40
2017,09,06,01,21,16.40
2017,09,06,01,22,16.40
2017,09,06,01,23,16.40
2017,09,06,01,24,16.40
2017,09,06,01,25,16.40
2017,09,06,01,26,16.40
2017,09,06,01,27,16.40
2017,09,06,01,28,16.40
2017,09,06,01,29,16.30
2017,09,06,01,30,16.30
2017,09,06,01,31,16.30
2017,09,06,01,32,16.30
2017,09,06,01,33,16.30
2017,09,06,01,34,16.30
2017,09,06,01,35,16.30
2017,09,06,01,36,16.30
2017,09,06,01,37,16.30
2017,09,06,01,38,16.30
2017,09,06,01,39,16.30
2017,09,06,01,40,16.20
2017,09,06,01,41,16.20
2017,09,06,01,42,16.20
2017,09,06,01,43,16.20
2017,09,06,01,44,16.20
2017,09,06,01,45,16.10
2017,09,06,01,46,16.10
2017,09,06,01,47,16.10
2017,09,06,01,48,16.10
2017,09,06,01,49,16.10
2017,09,06,01,50,16.00
2017,09,06,01,51,16.00
2017,09,06,01,52,16.00
2017,09,06,01,53,16.00
2017,09,06,01,54,16.00
2017,09,06,01,55,16.00
2017,09,06,01,56,15.90
2017,09,06,01,57,15.90
2017,09,06,01,58,15.90
2017,09,06,01,59,15.90
2017,09,06,02,00,15.90
2017,09,06,02,01,15.90
2017,09,06,02,02,15.90
2017,09,06,02,03,15.90
2017,09,06,02,04,15.90
2017,09,06,02,05,15.90
2017,09,06,02,06,15.90
2017,09,06,02,07,15.90
2017,09,06,02,08,15.90
2017,09,06,02,09,15.90
2017,09,06,02,10,15.90
2017,09,06,02,11,15.90
2017,09,06,02,12,15.90
2017,09,06,02,13,15.90
2017,09,06,02,14,15.90
2017,09,06,02,15,15.90
2017,09,06,02,16,15.90
2017,09,06,02,17,15.90
2017,09,06,02,18,15.90
2017,09,06,02,19,15.90
2017,09,06,02,20,15.80
2017,09,06,02,21,15.80
2017,09,06,02,22,15.80
2017,09,06,02,23,15.70
2017,09,06,02,24,15.70
2017,09,06,02,25,15.70
2017,09,06,02,26,15.70
2017,09,06,02,27,15.60
2017,09,06,02,28,15.60
2017,09,06,02,29,15.60
2017,09,06,02,30,15.50
2017,09,06,02,31,15.50
2017,09,06,02,32,15.50
2017,09,06,02,33,15.40
2017,09,06,02,34,15.40
2017,09,06,02,35,15.40
2017,09,06,02,36,15.50
2017,09,06,02,37,15.50
2017,09,06,02,38,15.50
2017,09,06,02,39,15.60
2017,09,06,02,40,15.60
2017,09,06,02,41,15.60
2017,09,06,02,42,15.60
2017,09,06,02,43,15.60
2017,09,06,02,44,15.60
2017,09,06,02,45,15.60
2017,09,06,02,46,15.60
2017,09,06,02,47,15.60
2017,09,06,02,48,15.60
2017,09,06,02,49,15.60
2017,09,06,02,50,15.60
2017,09,06,02,51,15.60
2017,09,06,02,52,15.60
2017,09,06,02,53,15.60
2017,09,06,02,54,15.60
2017,09,06,02,55,15.60
2017,09,06,02,56,15.60
2017,09,06,02,57,15.60
2017,09,06,02,58,15.60
2017,09,06,02,59,15.50
2017,09,06,03,00,15.50
2017,09,06,03,01,15.50
2017,09,06,03,02,15.50
2017,09,06,03,03,15.50
2017,09,06,03,04,15.40
2017,09,06,03,05,15.40
2017,09,06,03,06,15.40
2017,09,06,03,07,15.40
2017,09,06,03,08,15.40
2017,09,06,03,09,15.40
2017,09,06,03,10,15.40
2017,09,06,03,11,15.40
2017,09,06,03,12,15.40
2017,09,06,03,13,15.40
2017,09,06,03,14,15.40
2017,09,06,03,15,15.40
2017,09,06,03,16,15.40
2017,09,06,03,17,15.40
2017,09,06,03,18,15.40
2017,09,06,03,19,15.50
2017,09,06,03,20,15.60
2017,09,06,03,21,15.60
2017,09,06,03,22,15.60
2017,09,06,03,23,15.60
2017,09,06,03,24,15.60
2017,09,06,03,25,15.60
2017,09,06,03,26,15.60
2017,09,06,03,27,15.60
2017,09,06,03,28,15.70
2017,09,06,03,29,15.70
2017,09,06,03,30,15.70
2017,09,06,03,31,15.70
2017,09,06,03,32,15.70
2017,09,06,03,33,15.70
2017,09,06,03,34,15.70
2017,09,06,03,35,15.70
2017,09,06,03,36,15.70
2017,09,06,03,37,15.70
2017,09,06,03,38,15.70
2017,09,06,03,39,15.70
2017,09,06,03,40,15.70
2017,09,06,03,41,15.70
2017,09,06,03,42,15.70
2017,09,06,03,43,15.70
2017,09,06,03,44,15.70
2017,09,06,03,45,15.70
2017,09,06,03,46,15.70
2017,09,06,03,47,15.70
2017,09,06,03,48,15.70
2017,09,06,03,49,15.60
2017,09,06,03,50,15.60
2017,09,06,03,51,15.60
2017,09,06,03,52,15.60
2017,09,06,03,53,15.60
2017,09,06,03,54,15.50
2017,09,06,03,55,15.50
2017,09,06,03,56,15.50
2017,09,06,03,57,15.40
2017,09,06,03,58,15.40
2017,09,06,03,59,15.40
2017,09,06,04,00,15.40
2017,09,06,04,01,15.40
2017,09,06,04,02,15.40
2017,09,06,04,03,15.30
2017,09,06,04,04,15.30
2017,09,06,04,05,15.30
2017,09,06,04,06,15.30
2017,09,06,04,07,15.30
2017,09,06,04,08,15.30
2017,09,06,04,09,15.30
2017,09,06,04,10,15.30
2017,09,06,04,11,15.30
2017,09,06,04,12,15.30
2017,09,06,04,13,15.30
2017,09,06,04,14,15.30
2017,09,06,04,15,15.30
2017,09,06,04,16,15.20
2017,09,06,04,17,15.20
2017,09,06,04,18,15.20
2017,09,06,04,19,15.20
2017,09,06,04,20,15.20
2017,09,06,04,21,15.20
2017,09,06,04,22,15.20
2017,09,06,04,23,15.20
2017,09,06,04,24,15.10
2017,09,06,04,25,15.10
2017,09,06,04,26,15.10
2017,09,06,04,27,15.10
2017,09,06,04,28,15.10
2017,09,06,04,29,15.10
2017,09,06,04,30,15.10
2017,09,06,04,31,15.10
2017,09,06,04,32,15.00
2017,09,06,04,33,15.00
2017,09,06,04,34,14.90
2017,09,06,04,35,14.90
2017,09,06,04,36,14.80
2017,09,06,04,37,14.80
2017,09,06,04,38,14.80
2017,09,06,04,39,14.80
2017,09,06,04,40,14.70
2017,09,06,04,41,14.70
2017,09,06,04,42,14.60
2017,09,06,04,43,14.60
2017,09,06,04,44,14.60
2017,09,06,04,45,14.60
2017,09,06,04,46,14.60
2017,09,06,04,47,14.50
2017,09,06,04,48,14.50
2017,09,06,04,49,14.50
2017,09,06,04,50,14.50
2017,09,06,04,51,14.50
2017,09,06,04,52,14.50
2017,09,06,04,53,14.50
2017,09,06,04,54,14.50
2017,09,06,04,55,14.50
2017,09,06,04,56,14.50
2017,09,06,04,57,14.50
2017,09,06,04,58,14.50
2017,09,06,04,59,14.40
2017,09,06,05,00,14.40
2017,09,06,05,01,14.40
2017,09,06,05,02,14.40
2017,09,06,05,03,14.30
2017,09,06,05,04,14.30
2017,09,06,05,05,14.30
2017,09,06,05,06,14.30
2017,09,06,05,07,14.30
2017,09,06,05,08,14.30
2017,09,06,05,09,14.30
2017,09,06,05,10,14.30
2017,09,06,05,11,14.30
2017,09,06,05,12,14.30
2017,09,06,05,13,14.30
2017,09,06,05,14,14.30
2017,09,06,05,15,14.30
2017,09,06,05,16,14.30
2017,09,06,05,17,14.40
2017,09,06,05,18,14.40
2017,09,06,05,19,14.40
2017,09,06,05,20,14.40
2017,09,06,05,21,14.40
2017,09,06,05,22,14.40
2017,09,06,05,23,14.40
2017,09,06,05,24,14.40
2017,09,06,05,25,14.40
2017,09,06,05,26,14.40
2017,09,06,05,27,14.40
2017,09,06,05,28,14.40
2017,09,06,05,29,14.40
2017,09,06,05,30,14.40
2017,09,06,05,31,14.40
2017,09,06,05,32,14.40
2017,09,06,05,33,14.40
2017,09,06,05,34,14.40
2017,09,06,05,35,14.40
2017,09,06,05,36,14.40
2017,09,06,05,37,14.40
2017,09,06,05,38,14.40
2017,09,06,05,39,14.40
2017,09,06,05,40,14.40
2017,09,06,05,41,14.40
2017,09,06,05,42,14.40
2017,09,06,05,43,14.40
2017,09,06,05,44,14.40
2017,09,06,05,45,14.40
2017,09,06,05,46,14.40
2017,09,06,05,47,14.40
2017,09,06,05,48,14.40
2017,09,06,05,49,14.40
2017,09,06,05,50,14.40
2017,09,06,05,51,14.40
2017,09,06,05,52,14.40
2017,09,06,05,53,14.40
2017,09,06,05,54,14.40
2017,09,06,05,55,14.40
2017,09,06,05,56,14.40
2017,09,06,05,57,14.40
2017,09,06,05,58,14.40
2017,09,06,05,59,14.40
2017,09,06,06,00,14.40
2017,09,06,06,01,14.40
2017,09,06,06,02,14.40
2017,09,06,06,03,14.40
2017,09,06,06,04,14.40
2017,09,06,06,05,14.40
2017,09,06,06,06,14.40
2017,09,06,06,07,14.40
2017,09,06,06,08,14.40
2017,09,06,06,09,14.40
2017,09,06,06,10,14.40
2017,09,06,06,11,14.40
2017,09,06,06,12,14.40
2017,09,06,06,13,14.40
2017,09,06,06,14,14.40
2017,09,06,06,15,14.40
2017,09,06,06,16,14.40
2017,09,06,06,17,14.40
2017,09,06,06,18,14.40
2017,09,06,06,19,14.40
2017,09,06,06,20,14.40
2017,09,06,06,21,14.40
2017,09,06,06,22,14.40
2017,09,06,06,23,14.50
2017,09,06,06,24,14.50
2017,09,06,06,25,14.50
2017,09,06,06,26,14.60
2017,09,06,06,27,14.60
2017,09,06,06,28,14.60
2017,09,06,06,29,14.60
2017,09,06,06,30,14.60
2017,09,06,06,31,14.70
2017,09,06,06,32,14.70
2017,09,06,06,33,14.70
2017,09,06,06,34,14.80
2017,09,06,06,35,14.80
2017,09,06,06,36,14.80
2017,09,06,06,37,14.80
2017,09,06,06,38,14.90
2017,09,06,06,39,14.90
2017,09,06,06,40,15.00
2017,09,06,06,41,15.00
2017,09,06,06,42,15.10
2017,09,06,06,43,15.10
2017,09,06,06,44,15.20
2017,09,06,06,45,15.20
2017,09,06,06,46,15.20
2017,09,06,06,47,15.30
2017,09,06,06,48,15.30
2017,09,06,06,49,15.30
2017,09,06,06,50,15.30
2017,09,06,06,51,15.30
2017,09,06,06,52,15.30
2017,09,06,06,53,15.30
2017,09,06,06,54,15.30
2017,09,06,06,55,15.30
2017,09,06,06,56,15.30
2017,09,06,06,57,15.30
2017,09,06,06,58,15.30
2017,09,06,06,59,15.30
2017,09,06,07,00,15.30
2017,09,06,07,01,15.30
2017,09,06,07,02,15.30
2017,09,06,07,03,15.30
2017,09,06,07,04,15.30
2017,09,06,07,05,15.30
2017,09,06,07,06,15.30
2017,09,06,07,07,15.30
2017,09,06,07,08,15.30
2017,09,06,07,09,15.30
2017,09,06,07,10,15.30
2017,09,06,07,11,15.30
2017,09,06,07,12,15.30
2017,09,06,07,13,15.30
2017,09,06,07,14,15.30
2017,09,06,07,15,15.20
2017,09,06,07,16,15.20
2017,09,06,07,17,15.20
2017,09,06,07,18,15.20
2017,09,06,07,19,15.20
2017,09,06,07,20,15.20
2017,09,06,07,21,15.20
2017,09,06,07,22,15.20
2017,09,06,07,23,15.20
2017,09,06,07,24,15.20
2017,09,06,07,25,15.20
2017,09,06,07,26,15.20
2017,09,06,07,27,15.20
2017,09,06,07,28,15.20
2017,09,06,07,29,15.20
2017,09,06,07,30,15.20
2017,09,06,07,31,15.20
2017,09,06,07,32,15.30
2017,09,06,07,33,15.30
2017,09,06,07,34,15.30
2017,09,06,07,35,15.30
2017,09,06,07,36,15.30
2017,09,06,07,37,15.30
2017,09,06,07,38,15.30
2017,09,06,07,39,15.30
2017,09,06,07,40,15.30
2017,09,06,07,41,15.30
2017,09,06,07,42,15.40
2017,09,06,07,43,15.40
2017,09,06,07,44,15.40
2017,09,06,07,45,15.50
2017,09,06,07,46,15.50
2017,09,06,07,47,15.60
2017,09,06,07,48,15.60
2017,09,06,07,49,15.60
2017,09,06,07,50,15.70
2017,09,06,07,51,15.70
2017,09,06,07,52,15.70
2017,09,06,07,53,15.80
2017,09,06,07,54,15.80
2017,09,06,07,55,15.80
2017,09,06,07,56,15.90
2017,09,06,07,57,15.90
2017,09,06,07,58,15.90
2017,09,06,07,59,15.90
2017,09,06,08,00,16.00
2017,09,06,08,01,16.00
2017,09,06,08,02,16.10
2017,09,06,08,03,16.10
2017,09,06,08,04,16.10
2017,09,06,08,05,16.20
2017,09,06,08,06,16.20
2017,09,06,08,07,16.20
2017,09,06,08,08,16.20
2017,09,06,08,09,16.30
2017,09,06,08,10,16.30
2017,09,06,08,11,16.30
2017,09,06,08,12,16.30
2017,09,06,08,13,16.30
2017,09,06,08,14,16.40
2017,09,06,08,15,16.40
2017,09,06,08,16,16.40
2017,09,06,08,17,16.40
2017,09,06,08,18,16.40
2017,09,06,08,19,16.50
2017,09,06,08,20,16.50
2017,09,06,08,21,16.50
2017,09,06,08,22,16.60
2017,09,06,08,23,16.60
2017,09,06,08,24,16.60
2017,09,06,08,25,16.60
2017,09,06,08,26,16.70
2017,09,06,08,27,16.70
2017,09,06,08,28,16.70
2017,09,06,08,29,16.70
2017,09,06,08,30,16.70
2017,09,06,08,31,16.70
2017,09,06,08,32,16.60
2017,09,06,08,33,16.60
2017,09,06,08,34,16.60
2017,09,06,08,35,16.60
2017,09,06,08,36,16.60
2017,09,06,08,37,16.60
2017,09,06,08,38,16.60
2017,09,06,08,39,16.60
2017,09,06,08,40,16.60
2017,09,06,08,41,16.60
2017,09,06,08,42,16.60
2017,09,06,08,43,16.60
2017,09,06,08,44,16.60
2017,09,06,08,45,16.60
2017,09,06,08,46,16.60
2017,09,06,08,47,16.60
2017,09,06,08,48,16.70
2017,09,06,08,49,16.70
2017,09,06,08,50,16.70
2017,09,06,08,51,16.70
2017,09,06,08,52,16.70
2017,09,06,08,53,16.80
2017,09,06,08,54,16.80
2017,09,06,08,55,16.80
2017,09,06,08,56,16.90
2017,09,06,08,57,16.90
2017,09,06,08,58,16.90
2017,09,06,08,59,16.90
2017,09,06,09,00,17.00
2017,09,06,09,01,17.00
2017,09,06,09,02,17.00
2017,09,06,09,03,17.10
2017,09,06,09,04,17.10
2017,09,06,09,05,17.10
2017,09,06,09,06,17.10
2017,09,06,09,07,17.10
2017,09,06,09,08,17.20
2017,09,06,09,09,17.20
2017,09,06,09,10,17.20
2017,09,06,09,11,17.20
2017,09,06,09,12,17.20
2017,09,06,09,13,17.30
2017,09,06,09,14,17.30
2017,09,06,09,15,17.30
2017,09,06,09,16,17.40
2017,09,06,09,17,17.40
2017,09,06,09,18,17.40
2017,09,06,09,19,17.50
2017,09,06,09,20,17.50
2017,09,06,09,21,17.60
2017,09,06,09,22,17.60
2017,09,06,09,23,17.70
2017,09,06,09,24,17.70
2017,09,06,09,25,17.80
2017,09,06,09,26,17.80
2017,09,06,09,27,17.90
2017,09,06,09,28,18.00
2017,09,06,09,29,18.10
2017,09,06,09,30,18.10
2017,09,06,09,31,18.20
2017,09,06,09,32,18.20
2017,09,06,09,33,18.30
2017,09,06,09,34,18.30
2017,09,06,09,35,18.30
2017,09,06,09,36,18.40
2017,09,06,09,37,18.40
2017,09,06,09,38,18.40
2017,09,06,09,39,18.50
2017,09,06,09,40,18.50
2017,09,06,09,41,18.50
2017,09,06,09,42,18.60
2017,09,06,09,43,18.60
2017,09,06,09,44,18.60
2017,09,06,09,45,18.70
2017,09,06,09,46,18.70
2017,09,06,09,47,18.70
2017,09,06,09,48,18.70
2017,09,06,09,49,18.80
2017,09,06,09,50,18.80
2017,09,06,09,51,18.90
2017,09,06,09,52,18.90
2017,09,06,09,53,19.00
2017,09,06,09,54,19.00
2017,09,06,09,55,19.10
2017,09,06,09,56,19.10
2017,09,06,09,57,19.20
2017,09,06,09,58,19.20
2017,09,06,09,59,19.30
2017,09,06,10,00,19.30
2017,09,06,10,01,19.40
2017,09,06,10,02,19.50
2017,09,06,10,03,19.50
2017,09,06,10,04,19.60
2017,09,06,10,05,19.70
2017,09,06,10,06,19.80
2017,09,06,10,07,19.90
2017,09,06,10,08,20.00
2017,09,06,10,09,20.10
2017,09,06,10,10,20.10
2017,09,06,10,11,20.20
2017,09,06,10,12,20.30
2017,09,06,10,13,20.30
2017,09,06,10,14,20.40
2017,09,06,10,15,20.50
2017,09,06,10,16,20.50
2017,09,06,10,17,20.60
2017,09,06,10,18,20.60
2017,09,06,10,19,20.70
2017,09,06,10,20,20.70
2017,09,06,10,21,20.70
2017,09,06,10,22,20.80
2017,09,06,10,23,20.80
2017,09,06,10,24,20.80
2017,09,06,10,25,20.80
2017,09,06,10,26,20.90
2017,09,06,10,27,20.90
2017,09,06,10,28,21.00
2017,09,06,10,29,21.00
2017,09,06,10,30,21.00
2017,09,06,10,31,21.10
2017,09,06,10,32,21.10
2017,09,06,10,33,21.20
2017,09,06,10,34,21.30
2017,09,06,10,35,21.30
2017,09,06,10,36,21.40
2017,09,06,10,37,21.40
2017,09,06,10,38,21.50
2017,09,06,10,39,21.60
2017,09,06,10,40,21.60
2017,09,06,10,41,21.70
2017,09,06,10,42,21.80
2017,09,06,10,43,21.80
2017,09,06,10,44,21.90
2017,09,06,10,45,22.00
2017,09,06,10,46,22.00
2017,09,06,10,47,22.10
2017,09,06,10,48,22.20
2017,09,06,10,49,22.30
2017,09,06,10,50,22.30
2017,09,06,10,51,22.40
2017,09,06,10,52,22.50
2017,09,06,10,53,22.50
2017,09,06,10,54,22.60
2017,09,06,10,55,22.70
2017,09,06,10,56,22.70
2017,09,06,10,57,22.80
2017,09,06,10,58,22.90
2017,09,06,10,59,22.90
2017,09,06,11,00,23.00
2017,09,06,11,01,23.00
2017,09,06,11,02,23.00
2017,09,06,11,03,23.00
2017,09,06,11,04,23.00
2017,09,06,11,05,22.90
2017,09,06,11,06,22.90
2017,09,06,11,07,22.90
2017,09,06,11,08,22.90
2017,09,06,11,09,22.80
2017,09,06,11,10,22.80
2017,09,06,11,11,22.70
2017,09,06,11,12,22.70
2017,09,06,11,13,22.60
2017,09,06,11,14,22.60
2017,09,06,11,15,22.50
2017,09,06,11,16,22.50
2017,09,06,11,17,22.50
2017,09,06,11,18,22.40
2017,09,06,11,19,22.40
2017,09,06,11,20,22.40
2017,09,06,11,21,22.50
2017,09,06,11,22,22.50
2017,09,06,11,23,22.60
2017,09,06,11,24,22.60
2017,09,06,11,25,22.60
2017,09,06,11,26,22.60
2017,09,06,11,27,22.60
2017,09,06,11,28,22.60
2017,09,06,11,29,22.60
2017,09,06,11,30,22.50
2017,09,06,11,31,22.40
2017,09,06,11,32,22.30
2017,09,06,11,33,22.30
2017,09,06,11,34,22.30
2017,09,06,11,35,22.20
2017,09,06,11,36,22.20
2017,09,06,11,37,22.20
2017,09,06,11,38,22.20
2017,09,06,11,39,22.30
2017,09,06,11,40,22.30
2017,09,06,11,41,22.30
2017,09,06,11,42,22.30
2017,09,06,11,43,22.20
2017,09,06,11,44,22.20
2017,09,06,11,45,22.20
2017,09,06,11,46,22.20
2017,09,06,11,47,22.20
2017,09,06,11,48,22.20
2017,09,06,11,49,22.20
2017,09,06,11,50,22.20
2017,09,06,11,51,22.20
2017,09,06,11,52,22.20
2017,09,06,11,53,22.20
2017,09,06,11,54,22.20
2017,09,06,11,55,22.30
2017,09,06,11,56,22.30
2017,09,06,11,57,22.40
2017,09,06,11,58,22.40
2017,09,06,11,59,22.50
2017,09,06,12,00,22.60
2017,09,06,12,01,22.60
2017,09,06,12,02,22.70
2017,09,06,12,03,22.80
2017,09,06,12,04,22.90
2017,09,06,12,05,22.90
2017,09,06,12,06,23.00
2017,09,06,12,07,23.10
2017,09,06,12,08,23.10
2017,09,06,12,09,23.20
2017,09,06,12,10,23.20
2017,09,06,12,11,23.20
2017,09,06,12,12,23.20
2017,09,06,12,13,23.10
2017,09,06,12,14,23.10
2017,09,06,12,15,23.10
2017,09,06,12,16,23.00
2017,09,06,12,17,23.00
2017,09,06,12,18,23.00
2017,09,06,12,19,23.00
2017,09,06,12,20,23.00
2017,09,06,12,21,23.10
2017,09,06,12,22,23.10
2017,09,06,12,23,23.20
2017,09,06,12,24,23.20
2017,09,06,12,25,23.20
2017,09,06,12,26,23.30
2017,09,06,12,27,23.30
2017,09,06,12,28,23.40
2017,09,06,12,29,23.50
2017,09,06,12,30,23.60
2017,09,06,12,31,23.70
2017,09,06,12,32,23.70
2017,09,06,12,33,23.70
2017,09,06,12,34,23.80
2017,09,06,12,35,23.80
2017,09,06,12,36,23.80
2017,09,06,12,37,23.80
2017,09,06,12,38,23.80
2017,09,06,12,39,23.80
2017,09,06,12,40,23.70
2017,09,06,12,41,23.70
2017,09,06,12,42,23.60
2017,09,06,12,43,23.60
2017,09,06,12,44,23.60
2017,09,06,12,45,23.50
2017,09,06,12,46,23.50
2017,09,06,12,47,23.50
2017,09,06,12,48,23.50
2017,09,06,12,49,23.60
2017,09,06,12,50,23.60
2017,09,06,12,51,23.70
2017,09,06,12,52,23.70
2017,09,06,12,53,23.80
2017,09,06,12,54,23.90
2017,09,06,12,55,24.00
2017,09,06,12,56,24.10
2017,09,06,12,57,24.10
2017,09,06,12,58,24.20
2017,09,06,12,59,24.20
2017,09,06,13,00,24.20
2017,09,06,13,01,24.10
2017,09,06,13,02,24.10
2017,09,06,13,03,24.10
2017,09,06,13,04,24.10
2017,09,06,13,05,24.10
2017,09,06,13,06,24.10
2017,09,06,13,07,24.10
2017,09,06,13,08,24.10
2017,09,06,13,09,24.10
2017,09,06,13,10,24.10
2017,09,06,13,11,24.10
2017,09,06,13,12,24.00
2017,09,06,13,13,24.00
2017,09,06,13,14,23.90
2017,09,06,13,15,23.90
2017,09,06,13,16,23.80
2017,09,06,13,17,23.80
2017,09,06,13,18,23.70
2017,09,06,13,19,23.70
2017,09,06,13,20,23.70
2017,09,06,13,21,23.70
2017,09,06,13,22,23.60
2017,09,06,13,23,23.60
2017,09,06,13,24,23.60
2017,09,06,13,25,23.60
2017,09,06,13,26,23.60
2017,09,06,13,27,23.60
2017,09,06,13,28,23.60
2017,09,06,13,29,23.70
2017,09,06,13,30,23.70
2017,09,06,13,31,23.80
2017,09,06,13,32,23.90
2017,09,06,13,33,24.00
2017,09,06,13,34,24.00
2017,09,06,13,35,24.10
2017,09,06,13,36,24.20
2017,09,06,13,37,24.30
2017,09,06,13,38,24.40
2017,09,06,13,39,24.50
2017,09,06,13,40,24.60
2017,09,06,13,41,24.60
2017,09,06,13,42,24.70
2017,09,06,13,43,24.80
2017,09,06,13,44,24.90
2017,09,06,13,45,25.00
2017,09,06,13,46,25.10
2017,09,06,13,47,25.20
2017,09,06,13,48,25.30
2017,09,06,13,49,25.30
2017,09,06,13,50,25.40
2017,09,06,13,51,25.40
2017,09,06,13,52,25.50
2017,09,06,13,53,25.60
2017,09,06,13,54,25.60
2017,09,06,13,55,25.70
2017,09,06,13,56,25.70
2017,09,06,13,57,25.70
2017,09,06,13,58,25.80
2017,09,06,13,59,25.80
2017,09,06,14,00,25.80
2017,09,06,14,01,25.80
2017,09,06,14,02,25.80
2017,09,06,14,03,25.80
2017,09,06,14,04,25.90
2017,09,06,14,05,25.90
2017,09,06,14,06,26.00
2017,09,06,14,07,26.00
2017,09,06,14,08,26.10
2017,09,06,14,09,26.10
2017,09,06,14,10,26.20
2017,09,06,14,11,26.30
2017,09,06,14,12,26.30
2017,09,06,14,13,26.40
2017,09,06,14,14,26.50
2017,09,06,14,15,26.60
2017,09,06,14,16,26.70
2017,09,06,14,17,26.80
2017,09,06,14,18,26.90
2017,09,06,14,19,27.10
2017,09,06,14,20,27.20
2017,09,06,14,21,27.30
2017,09,06,14,22,27.30
2017,09,06,14,23,27.40
2017,09,06,14,24,27.40
2017,09,06,14,25,27.40
2017,09,06,14,26,27.50
2017,09,06,14,27,27.50
2017,09,06,14,28,27.60
2017,09,06,14,29,27.60
2017,09,06,14,30,27.70
2017,09,06,14,31,27.70
2017,09,06,14,32,27.80
2017,09,06,14,33,27.80
2017,09,06,14,34,27.80
2017,09,06,14,35,27.70
2017,09,06,14,36,27.70
2017,09,06,14,37,27.70
2017,09,06,14,38,27.80
2017,09,06,14,39,27.80
2017,09,06,14,40,27.90
2017,09,06,14,41,27.90
2017,09,06,14,42,28.00
2017,09,06,14,43,28.00
2017,09,06,14,44,28.10
2017,09,06,14,45,28.20
2017,09,06,14,46,28.20
2017,09,06,14,47,28.30
2017,09,06,14,48,28.30
2017,09,06,14,49,28.30
2017,09,06,14,50,28.30
2017,09,06,14,51,28.40
2017,09,06,14,52,28.40
2017,09,06,14,53,28.40
2017,09,06,14,54,28.40
2017,09,06,14,55,28.50
2017,09,06,14,56,28.50
2017,09,06,14,57,28.50
2017,09,06,14,58,28.50
2017,09,06,14,59,28.50
2017,09,06,15,00,28.50
2017,09,06,15,01,28.50
2017,09,06,15,02,28.40
2017,09,06,15,03,28.40
2017,09,06,15,04,28.40
2017,09,06,15,05,28.40
2017,09,06,15,06,28.40
2017,09,06,15,07,28.40
2017,09,06,15,08,28.40
2017,09,06,15,09,28.40
2017,09,06,15,10,28.40
2017,09,06,15,11,28.30
2017,09,06,15,12,28.30
2017,09,06,15,13,28.30
2017,09,06,15,14,28.30
2017,09,06,15,15,28.30
2017,09,06,15,16,28.30
2017,09,06,15,17,28.30
2017,09,06,15,18,28.30
2017,09,06,15,19,28.40
2017,09,06,15,20,28.40
2017,09,06,15,21,28.40
2017,09,06,15,22,28.40
2017,09,06,15,23,28.40
2017,09,06,15,24,28.40
2017,09,06,15,25,28.30
2017,09,06,15,26,28.20
2017,09,06,15,27,28.10
2017,09,06,15,28,28.10
2017,09,06,15,29,28.00
2017,09,06,15,30,27.90
2017,09,06,15,31,27.80
2017,09,06,15,32,27.70
2017,09,06,15,33,27.70
2017,09,06,15,34,27.70
2017,09,06,15,35,27.60
2017,09,06,15,36,27.60
2017,09,06,15,37,27.60
2017,09,06,15,38,27.60
2017,09,06,15,39,27.60
2017,09,06,15,40,27.60
2017,09,06,15,41,27.60
2017,09,06,15,42,27.60
2017,09,06,15,43,27.60
2017,09,06,15,44,27.60
2017,09,06,15,45,27.50
2017,09,06,15,46,27.50
2017,09,06,15,47,27.50
2017,09,06,15,48,27.50
2017,09,06,15,49,27.60
2017,09,06,15,50,27.60
2017,09,06,15,51,27.70
2017,09,06,15,52,27.70
2017,09,06,15,53,27.80
2017,09,06,15,54,27.80
2017,09,06,15,55,27.90
2017,09,06,15,56,27.90
2017,09,06,15,57,27.90
2017,09,06,15,58,27.90
2017,09,06,15,59,27.90
2017,09,06,16,00,27.90
2017,09,06,16,01,27.80
2017,09,06,16,02,27.70
2017,09,06,16,03,27.70
2017,09,06,16,04,27.60
2017,09,06,16,05,27.50
2017,09,06,16,06,27.50
2017,09,06,16,07,27.40
2017,09,06,16,08,27.30
2017,09,06,16,09,27.30
2017,09,06,16,10,27.20
2017,09,06,16,11,27.20
2017,09,06,16,12,27.10
2017,09,06,16,13,27.10
2017,09,06,16,14,27.00
2017,09,06,16,15,26.90
2017,09,06,16,16,26.80
2017,09,06,16,17,26.80
2017,09,06,16,18,26.70
2017,09,06,16,19,26.60
2017,09,06,16,20,26.60
2017,09,06,16,21,26.70
2017,09,06,16,22,26.80
2017,09,06,16,23,26.80
2017,09,06,16,24,26.70
2017,09,06,16,25,26.70
2017,09,06,16,26,26.60
2017,09,06,16,27,26.60
2017,09,06,16,28,26.50
2017,09,06,16,29,26.50
2017,09,06,16,30,26.50
2017,09,06,16,31,26.50
2017,09,06,16,32,26.50
2017,09,06,16,33,26.50
2017,09,06,16,34,26.50
2017,09,06,16,35,26.60
2017,09,06,16,36,26.60
2017,09,06,16,37,26.70
2017,09,06,16,38,26.70
2017,09,06,16,39,26.70
2017,09,06,16,40,26.70
2017,09,06,16,41,26.70
2017,09,06,16,42,26.70
2017,09,06,16,43,26.70
2017,09,06,16,44,26.70
2017,09,06,16,45,26.70
2017,09,06,16,46,26.70
2017,09,06,16,47,26.60
2017,09,06,16,48,26.50
2017,09,06,16,49,26.30
2017,09,06,16,50,26.20
2017,09,06,16,51,26.00
2017,09,06,16,52,25.80
2017,09,06,16,53,25.60
2017,09,06,16,54,25.50
2017,09,06,16,55,25.40
2017,09,06,16,56,25.20
2017,09,06,16,57,25.10
2017,09,06,16,58,25.00
2017,09,06,16,59,24.80
2017,09,06,17,00,24.70
2017,09,06,17,01,24.60
2017,09,06,17,02,24.50
2017,09,06,17,03,24.40
2017,09,06,17,04,24.40
2017,09,06,17,05,24.40
2017,09,06,17,06,24.40
2017,09,06,17,07,24.40
2017,09,06,17,08,24.40
2017,09,06,17,09,24.40
2017,09,06,17,10,24.50
2017,09,06,17,11,24.60
2017,09,06,17,12,24.70
2017,09,06,17,13,24.70
2017,09,06,17,14,24.80
2017,09,06,17,15,24.80
2017,09,06,17,16,24.80
2017,09,06,17,17,24.80
2017,09,06,17,18,24.80
2017,09,06,17,19,24.80